{"data":{"norad_id":64090,"epoch":"2026-09-21T22:30:41.918688Z","epoch_age_seconds":71218,"freshness":"FRESH","line1":"1 64090U 25108D   26264.93798517  .00003156  00000+0  15108-3 0  9996","line2":"2 64090  97.4615 339.4516 0012572  34.1872 326.0170 15.19633280 74059","mean_motion":15.1963328,"eccentricity":0.0012572,"inclination_deg":97.4615,"raan_deg":339.4516,"arg_perigee_deg":34.1872,"mean_anomaly_deg":326.017,"bstar":0.00015108,"rev_number":7405,"period_min":94.759704130723,"perigee_km":498.29214090412,"apogee_km":515.60399880376,"semimajor_km":6885.0850698539,"source":"CELESTRAK","updated_at":"2026-09-22T09:00:29.533310Z"}}